DGRLG EDDK-EDGS

Flight info

Callsign DGRLG
Flight time 0h 28m
Altitude 9000
Route COL4X COL DCT SIL
Aircraft DA42/L-SDFGRY/C

Departure

Time 2026-05-04 14:46
Airport Cologne Bonn Airport (EDDK)

Arrival

Time 2026-05-04 15:14
Airport Siegerland Airport (EDGS)
Time Latitude Longitude Altitude Speed Heading
2026-05-04 14:28 50.87174 7.12593 226 ft 0 kts 137°
2026-05-04 14:37 50.87173 7.12594 226 ft 2 kts 137°
2026-05-04 14:37 50.87145 7.12585 227 ft 5 kts 219°
2026-05-04 14:38 50.87102 7.12522 227 ft 11 kts 218°
2026-05-04 14:38 50.87025 7.12523 228 ft 13 kts 135°
2026-05-04 14:38 50.86940 7.12646 231 ft 17 kts 137°
2026-05-04 14:38 50.86851 7.12776 233 ft 17 kts 137°
2026-05-04 14:39 50.86764 7.12903 236 ft 17 kts 137°
2026-05-04 14:39 50.86679 7.13026 239 ft 17 kts 137°
2026-05-04 14:39 50.86598 7.13141 241 ft 15 kts 136°
2026-05-04 14:40 50.86502 7.13371 244 ft 11 kts 64°
2026-05-04 14:40 50.86545 7.13498 243 ft 17 kts 64°
2026-05-04 14:40 50.86603 7.13700 244 ft 23 kts 64°
2026-05-04 14:40 50.86672 7.13922 249 ft 20 kts 63°
2026-05-04 14:41 50.86725 7.14106 250 ft 17 kts 64°
2026-05-04 14:41 50.86797 7.14106 249 ft 12 kts 316°
2026-05-04 14:41 50.86982 7.13837 239 ft 25 kts 317°
2026-05-04 14:42 50.87219 7.13495 230 ft 22 kts 317°
2026-05-04 14:42 50.87315 7.13398 227 ft 12 kts 20°
2026-05-04 14:42 50.87343 7.13490 227 ft 11 kts 98°
2026-05-04 14:43 50.87329 7.13616 230 ft 10 kts 99°
2026-05-04 14:43 50.87319 7.13715 232 ft 8 kts 99°
2026-05-04 14:43 50.87314 7.13763 233 ft 0 kts 96°
2026-05-04 14:44 50.87310 7.13799 234 ft 10 kts 100°
2026-05-04 14:44 50.87282 7.13966 237 ft 17 kts 107°
2026-05-04 14:45 50.87207 7.14126 241 ft 34 kts 138°
2026-05-04 14:45 50.86881 7.14597 257 ft 87 kts 138°
2026-05-04 14:45 50.86401 7.15277 469 ft 95 kts 142°
2026-05-04 14:45 50.85894 7.15998 849 ft 98 kts 142°
2026-05-04 14:46 50.85389 7.16724 1214 ft 97 kts 142°
2026-05-04 14:46 50.84897 7.17425 1545 ft 92 kts 143°
2026-05-04 14:46 50.84418 7.18103 1877 ft 93 kts 144°
2026-05-04 14:46 50.83932 7.18786 2197 ft 94 kts 145°
2026-05-04 14:47 50.83442 7.19472 2526 ft 95 kts 146°
2026-05-04 14:47 50.82944 7.20166 2857 ft 95 kts 146°
2026-05-04 14:47 50.82450 7.20866 3213 ft 96 kts 140°
2026-05-04 14:47 50.82109 7.21781 3607 ft 97 kts 123°
2026-05-04 14:48 50.81809 7.22745 4014 ft 98 kts 124°
2026-05-04 14:48 50.81515 7.23714 4422 ft 99 kts 118°
2026-05-04 14:48 50.81383 7.24813 4834 ft 103 kts 105°
2026-05-04 14:48 50.81286 7.25937 5211 ft 103 kts 105°
2026-05-04 14:49 50.81191 7.27057 5592 ft 103 kts 105°
2026-05-04 14:49 50.81094 7.28187 5966 ft 104 kts 106°
2026-05-04 14:49 50.80996 7.29317 6332 ft 104 kts 106°
2026-05-04 14:49 50.80899 7.30452 6674 ft 104 kts 106°
2026-05-04 14:50 50.80800 7.31592 6998 ft 105 kts 107°
2026-05-04 14:50 50.80700 7.32745 7319 ft 106 kts 107°
2026-05-04 14:50 50.80599 7.33904 7653 ft 106 kts 107°
2026-05-04 14:50 50.80498 7.35063 7983 ft 107 kts 107°
2026-05-04 14:51 50.80396 7.36233 8318 ft 108 kts 106°
2026-05-04 14:51 50.80293 7.37418 8652 ft 109 kts 106°
2026-05-04 14:51 50.80188 7.38613 8971 ft 111 kts 106°
2026-05-04 14:51 50.80065 7.39961 9000 ft 135 kts 105°
2026-05-04 14:52 50.79927 7.41511 8994 ft 149 kts 104°
2026-05-04 14:52 50.79782 7.43183 8989 ft 157 kts 105°
2026-05-04 14:52 50.79633 7.44917 8990 ft 161 kts 104°
2026-05-04 14:52 50.79476 7.46704 8988 ft 167 kts 103°
2026-05-04 14:53 50.79317 7.48519 8986 ft 172 kts 103°
2026-05-04 14:53 50.79151 7.50404 8972 ft 174 kts 103°
2026-05-04 14:53 50.78963 7.52302 8966 ft 174 kts 109°
2026-05-04 14:53 50.78622 7.54138 8974 ft 175 kts 114°
2026-05-04 14:54 50.78266 7.55991 8975 ft 177 kts 112°
2026-05-04 14:54 50.77928 7.57871 8980 ft 179 kts 111°
2026-05-04 14:54 50.77594 7.59798 8983 ft 180 kts 112°
2026-05-04 14:54 50.77263 7.61683 8984 ft 181 kts 111°
2026-05-04 14:55 50.76929 7.63601 8985 ft 182 kts 112°
2026-05-04 14:55 50.76592 7.65525 8988 ft 182 kts 111°
2026-05-04 14:55 50.76256 7.67449 8990 ft 181 kts 111°
2026-05-04 14:55 50.75920 7.69367 8995 ft 181 kts 111°
2026-05-04 14:56 50.75582 7.71280 8994 ft 180 kts 111°
2026-05-04 14:56 50.75247 7.73177 8992 ft 178 kts 112°
2026-05-04 14:56 50.74918 7.75051 8996 ft 176 kts 111°
2026-05-04 14:56 50.74591 7.76908 8993 ft 175 kts 112°
2026-05-04 14:57 50.74265 7.78750 8995 ft 173 kts 112°
2026-05-04 14:57 50.73944 7.80568 8998 ft 171 kts 111°
2026-05-04 14:57 50.73625 7.82370 9001 ft 171 kts 112°
2026-05-04 14:57 50.73306 7.84170 9005 ft 170 kts 112°
2026-05-04 14:58 50.72987 7.85969 9004 ft 170 kts 112°
2026-05-04 14:58 50.72668 7.87766 9008 ft 170 kts 112°
2026-05-04 14:58 50.72348 7.89564 9011 ft 170 kts 112°
2026-05-04 14:58 50.72029 7.91364 9012 ft 170 kts 112°
2026-05-04 14:59 50.71701 7.93193 8891 ft 177 kts 112°
2026-05-04 14:59 50.71363 7.95087 8719 ft 181 kts 112°
2026-05-04 14:59 50.70673 7.98958 8344 ft 184 kts 110°
2026-05-04 15:00 50.70327 8.00906 8167 ft 185 kts 111°
2026-05-04 15:00 50.69977 8.02863 7991 ft 186 kts 111°
2026-05-04 15:00 50.69625 8.04824 7813 ft 186 kts 111°
2026-05-04 15:01 50.68917 8.08764 7466 ft 187 kts 111°
2026-05-04 15:01 50.68563 8.10732 7297 ft 187 kts 111°
2026-05-04 15:01 50.68209 8.12706 7118 ft 187 kts 111°
2026-05-04 15:01 50.67798 8.14641 6953 ft 185 kts 118°
2026-05-04 15:02 50.67310 8.16512 6779 ft 185 kts 118°
2026-05-04 15:02 50.66816 8.18391 6612 ft 186 kts 118°
2026-05-04 15:02 50.66325 8.20264 6440 ft 188 kts 118°
2026-05-04 15:02 50.65831 8.22155 6265 ft 186 kts 118°
2026-05-04 15:03 50.65337 8.24043 6131 ft 183 kts 118°
2026-05-04 15:03 50.64852 8.25889 5997 ft 182 kts 118°
2026-05-04 15:03 50.64377 8.27697 5867 ft 180 kts 118°
2026-05-04 15:03 50.63900 8.29515 5737 ft 179 kts 118°
2026-05-04 15:04 50.63420 8.31333 5617 ft 181 kts 117°
2026-05-04 15:04 50.62936 8.33168 5482 ft 182 kts 117°
2026-05-04 15:04 50.62448 8.35024 5341 ft 185 kts 117°
2026-05-04 15:04 50.61950 8.36914 5218 ft 188 kts 117°
2026-05-04 15:05 50.61442 8.38828 5082 ft 188 kts 117°
2026-05-04 15:05 50.60944 8.40723 4956 ft 186 kts 117°
2026-05-04 15:05 50.60346 8.42468 4966 ft 179 kts 134°
2026-05-04 15:05 50.59357 8.43609 4961 ft 177 kts 161°
2026-05-04 15:06 50.58159 8.43912 4958 ft 175 kts 188°
2026-05-04 15:06 50.57027 8.43359 4947 ft 169 kts 213°
2026-05-04 15:06 50.56181 8.42109 4945 ft 167 kts 237°
2026-05-04 15:07 50.55837 8.38667 4947 ft 161 kts 283°
2026-05-04 15:07 50.56359 8.37123 4958 ft 161 kts 301°
2026-05-04 15:07 50.57033 8.35728 4958 ft 160 kts 302°
2026-05-04 15:07 50.57744 8.34389 4960 ft 159 kts 304°
2026-05-04 15:08 50.58439 8.33048 4967 ft 158 kts 303°
2026-05-04 15:08 50.59119 8.31692 4966 ft 158 kts 302°
2026-05-04 15:08 50.59801 8.30320 4968 ft 159 kts 302°
2026-05-04 15:08 50.60483 8.28948 4964 ft 158 kts 302°
2026-05-04 15:09 50.61159 8.27592 4859 ft 159 kts 302°
2026-05-04 15:09 50.61851 8.26205 4646 ft 160 kts 303°
2026-05-04 15:09 50.62528 8.24849 4468 ft 154 kts 302°
2026-05-04 15:10 50.63796 8.22310 4071 ft 139 kts 302°
2026-05-04 15:10 50.64378 8.21143 3890 ft 132 kts 301°
2026-05-04 15:10 50.65475 8.18938 3552 ft 125 kts 301°
2026-05-04 15:11 50.66005 8.17873 3389 ft 122 kts 301°
2026-05-04 15:11 50.66519 8.16843 3231 ft 118 kts 300°
2026-05-04 15:11 50.67022 8.15826 3077 ft 118 kts 301°
2026-05-04 15:11 50.67513 8.14839 2908 ft 110 kts 302°
2026-05-04 15:12 50.67965 8.13929 2770 ft 101 kts 303°
2026-05-04 15:12 50.68379 8.13102 2620 ft 92 kts 303°
2026-05-04 15:12 50.68768 8.12317 2493 ft 91 kts 303°
2026-05-04 15:12 50.69160 8.11529 2362 ft 91 kts 302°
2026-05-04 15:13 50.69539 8.10768 2240 ft 84 kts 302°
2026-05-04 15:13 50.69899 8.10040 2116 ft 85 kts 304°
2026-05-04 15:13 50.70260 8.09307 2007 ft 85 kts 307°
2026-05-04 15:13 50.70598 8.08632 1957 ft 63 kts 308°
2026-05-04 15:14 50.70783 8.08260 1958 ft 30 kts 308°
2026-05-04 15:14 50.70884 8.08034 1960 ft 19 kts 287°
2026-05-04 15:14 50.70849 8.07899 1958 ft 13 kts 218°
2026-05-04 15:14 50.70789 8.07827 1958 ft 9 kts 216°
2026-05-04 15:15 50.70733 8.07787 1958 ft 8 kts 172°
2026-05-04 15:15 50.70678 8.07747 1958 ft 10 kts 233°
2026-05-04 15:15 50.70652 8.07654 1958 ft 8 kts 255°
2026-05-04 15:16 50.70655 8.07616 1958 ft 0 kts 142°